Time,TemperatureF,DewpointF,PressureIn,WindDirection,WindDirectionDegrees,WindSpeedMPH,WindSpeedGustMPH,Humidity,HourlyPrecipIn,Conditions,Clouds,dailyrainin,SoftwareType,DateUTC
2015-03-27 00:07:00,76.5,75.9,29.72,South,180,1.1,-999.0,98,-99.99,,,0.00,Acu-Link.com,2015-03-27 04:07:00,
2015-03-27 00:22:00,76.5,75.9,29.72,East,90,0.0,-999.0,98,-99.99,,,0.00,Acu-Link.com,2015-03-27 04:22:00,
2015-03-27 00:37:00,76.6,76.0,29.72,South,180,0.0,-999.0,98,-99.99,,,0.00,Acu-Link.com,2015-03-27 04:37:00,
2015-03-27 00:52:00,76.8,76.2,29.73,South,180,0.0,-999.0,98,-99.99,,,0.00,Acu-Link.com,2015-03-27 04:52:00,
2015-03-27 01:07:00,77.2,76.6,29.72,South,180,1.1,-999.0,98,-99.99,,,0.00,Acu-Link.com,2015-03-27 05:07:00,
2015-03-27 01:22:00,78.1,77.5,29.73,South,180,0.0,-999.0,98,-99.99,,,0.01,Acu-Link.com,2015-03-27 05:22:00,
2015-03-27 01:38:00,79.3,78.7,29.72,South,180,1.7,-999.0,98,-99.99,,,0.01,Acu-Link.com,2015-03-27 05:38:00,
2015-03-27 01:53:00,79.3,78.7,29.72,WSW,247,1.7,-999.0,98,-99.99,,,0.01,Acu-Link.com,2015-03-27 05:53:00,
2015-03-27 02:08:00,79.3,78.7,29.71,South,180,2.2,-999.0,98,-99.99,,,0.01,Acu-Link.com,2015-03-27 06:08:00,
2015-03-27 02:23:00,80.2,79.6,29.70,SE,135,4.2,-999.0,98,-99.99,,,0.01,Acu-Link.com,2015-03-27 06:23:00,
2015-03-27 02:38:00,80.6,80.0,29.71,South,180,3.2,-999.0,98,-99.99,,,0.01,Acu-Link.com,2015-03-27 06:38:00,
2015-03-27 02:53:00,86.9,86.3,29.70,South,180,2.2,-999.0,98,-99.99,,,0.01,Acu-Link.com,2015-03-27 06:53:00,
2015-03-27 03:08:00,91.4,90.8,29.69,SSW,202,2.7,-999.0,98,-99.99,,,0.01,Acu-Link.com,2015-03-27 07:08:00,
2015-03-27 03:23:00,93.7,93.0,29.70,South,180,1.7,-999.0,98,-99.99,,,0.01,Acu-Link.com,2015-03-27 07:23:00,
2015-03-27 03:38:00,93.6,92.9,29.70,SSE,157,2.2,-999.0,98,-99.99,,,0.01,Acu-Link.com,2015-03-27 07:38:00,
2015-03-27 03:53:00,92.7,92.0,29.69,South,180,4.2,-999.0,98,-99.99,,,0.01,Acu-Link.com,2015-03-27 07:53:00,
2015-03-27 04:09:00,93.2,92.5,29.69,ESE,112,4.7,-999.0,98,-99.99,,,0.01,Acu-Link.com,2015-03-27 08:09:00,
2015-03-27 04:24:00,93.9,69.9,29.69,SW,225,2.2,-999.0,46,-99.99,,,0.01,Acu-Link.com,2015-03-27 08:24:00,
2015-03-27 04:39:00,93.9,93.2,29.68,South,180,2.7,-999.0,98,-99.99,,,0.01,Acu-Link.com,2015-03-27 08:39:00,
2015-03-27 04:54:00,92.7,92.0,29.68,SSW,202,3.2,-999.0,98,-99.99,,,0.01,Acu-Link.com,2015-03-27 08:54:00,
2015-03-27 05:09:00,93.4,92.7,29.69,South,180,2.7,-999.0,98,-99.99,,,0.01,Acu-Link.com,2015-03-27 09:09:00,
2015-03-27 05:24:00,93.6,92.9,29.68,WNW,292,2.2,-999.0,98,-99.99,,,0.01,Acu-Link.com,2015-03-27 09:24:00,
2015-03-27 05:39:00,93.9,93.2,29.68,South,180,1.7,-999.0,98,-99.99,,,0.01,Acu-Link.com,2015-03-27 09:39:00,
2015-03-27 05:54:00,94.1,93.4,29.68,WNW,292,1.1,-999.0,98,-99.99,,,0.01,Acu-Link.com,2015-03-27 09:54:00,
2015-03-27 06:10:00,94.1,93.4,29.68,SW,225,1.7,-999.0,98,-99.99,,,0.01,Acu-Link.com,2015-03-27 10:10:00,
2015-03-27 06:25:00,94.3,93.6,29.69,West,270,2.7,-999.0,98,-99.99,,,0.01,Acu-Link.com,2015-03-27 10:25:00,
2015-03-27 06:40:00,92.7,92.0,29.69,SSE,157,2.2,-999.0,98,-99.99,,,0.01,Acu-Link.com,2015-03-27 10:40:00,
2015-03-27 06:55:00,90.5,89.9,29.70,South,180,3.7,-999.0,98,-99.99,,,0.01,Acu-Link.com,2015-03-27 10:55:00,
2015-03-27 07:10:00,89.2,88.6,29.71,SSW,202,3.2,-999.0,98,-99.99,,,0.02,Acu-Link.com,2015-03-27 11:10:00,
2015-03-27 07:25:00,89.8,89.2,29.71,West,270,3.7,-999.0,98,-99.99,,,0.07,Acu-Link.com,2015-03-27 11:25:00,
2015-03-27 07:40:00,85.3,84.7,29.71,SSW,202,7.3,-999.0,98,-99.99,,,0.08,Acu-Link.com,2015-03-27 11:40:00,
2015-03-27 07:55:00,80.6,80.0,29.71,West,270,2.7,-999.0,98,-99.99,,,0.11,Acu-Link.com,2015-03-27 11:55:00,
2015-03-27 08:11:00,79.2,78.6,29.71,South,180,2.7,-999.0,98,-99.99,,,0.13,Acu-Link.com,2015-03-27 12:11:00,
2015-03-27 08:26:00,80.6,80.0,29.71,SW,225,1.1,-999.0,98,-99.99,,,0.13,Acu-Link.com,2015-03-27 12:26:00,
2015-03-27 08:41:00,82.0,81.4,29.70,West,270,1.1,-999.0,98,-99.99,,,0.13,Acu-Link.com,2015-03-27 12:41:00,
2015-03-27 08:56:00,82.6,82.0,29.70,SW,225,2.7,-999.0,98,-99.99,,,0.13,Acu-Link.com,2015-03-27 12:56:00,
2015-03-27 09:11:00,80.2,79.6,29.70,SSW,202,4.7,-999.0,98,-99.99,,,0.13,Acu-Link.com,2015-03-27 13:11:00,
2015-03-27 09:26:00,81.3,80.7,29.70,South,180,2.7,-999.0,98,-99.99,,,0.13,Acu-Link.com,2015-03-27 13:26:00,
2015-03-27 09:41:00,82.2,81.6,29.69,SW,225,1.7,-999.0,98,-99.99,,,0.13,Acu-Link.com,2015-03-27 13:41:00,
2015-03-27 09:56:00,82.4,81.8,29.69,SSE,157,2.7,-999.0,98,-99.99,,,0.13,Acu-Link.com,2015-03-27 13:56:00,
2015-03-27 10:12:00,82.2,81.6,29.69,SW,225,4.2,-999.0,98,-99.99,,,0.13,Acu-Link.com,2015-03-27 14:12:00,
2015-03-27 10:27:00,83.1,82.5,29.69,South,180,5.3,-999.0,98,-99.99,,,0.13,Acu-Link.com,2015-03-27 14:27:00,
2015-03-27 10:42:00,83.5,82.9,29.68,SSW,202,2.2,-999.0,98,-99.99,,,0.13,Acu-Link.com,2015-03-27 14:42:00,
2015-03-27 10:57:00,83.1,82.5,29.68,SSW,202,4.7,-999.0,98,-99.99,,,0.13,Acu-Link.com,2015-03-27 14:57:00,
2015-03-27 11:12:00,83.5,82.9,29.69,WSW,247,4.7,-999.0,98,-99.99,,,0.13,Acu-Link.com,2015-03-27 15:12:00,
2015-03-27 11:27:00,82.8,82.2,29.68,SW,225,3.7,-999.0,98,-99.99,,,0.13,Acu-Link.com,2015-03-27 15:27:00,
2015-03-27 11:42:00,84.0,83.4,29.69,West,270,3.7,-999.0,98,-99.99,,,0.13,Acu-Link.com,2015-03-27 15:42:00,
2015-03-27 11:57:00,84.4,83.8,29.69,SW,225,3.7,-999.0,98,-99.99,,,0.14,Acu-Link.com,2015-03-27 15:57:00,
2015-03-27 12:12:00,85.3,84.7,29.69,West,270,3.2,-999.0,98,-99.99,,,0.14,Acu-Link.com,2015-03-27 16:12:00,
2015-03-27 12:28:00,85.3,84.7,29.68,WSW,247,2.7,-999.0,98,-99.99,,,0.14,Acu-Link.com,2015-03-27 16:28:00,
2015-03-27 12:43:00,84.7,84.1,29.67,SE,135,4.2,-999.0,98,-99.99,,,0.14,Acu-Link.com,2015-03-27 16:43:00,
2015-03-27 12:58:00,85.6,85.0,29.66,NW,315,2.7,-999.0,98,-99.99,,,0.14,Acu-Link.com,2015-03-27 16:58:00,
2015-03-27 13:13:00,85.5,84.9,29.64,NE,45,6.3,-999.0,98,-99.99,,,0.14,Acu-Link.com,2015-03-27 17:13:00,
2015-03-27 13:28:00,85.5,84.9,29.64,WSW,247,5.3,-999.0,98,-99.99,,,0.14,Acu-Link.com,2015-03-27 17:28:00,
2015-03-27 13:43:00,86.2,85.6,29.64,SW,225,5.8,-999.0,98,-99.99,,,0.14,Acu-Link.com,2015-03-27 17:43:00,
2015-03-27 13:59:00,86.0,85.4,29.63,NW,315,3.7,-999.0,98,-99.99,,,0.14,Acu-Link.com,2015-03-27 17:59:00,
2015-03-27 14:14:00,87.1,86.5,29.62,WSW,247,5.3,-999.0,98,-99.99,,,0.14,Acu-Link.com,2015-03-27 18:14:00,
2015-03-27 14:29:00,84.4,83.8,29.62,West,270,3.7,-999.0,98,-99.99,,,0.14,Acu-Link.com,2015-03-27 18:29:00,
2015-03-27 14:44:00,84.9,84.3,29.61,SW,225,3.7,-999.0,98,-99.99,,,0.15,Acu-Link.com,2015-03-27 18:44:00,
2015-03-27 14:59:00,84.7,84.1,29.61,West,270,2.2,-999.0,98,-99.99,,,0.15,Acu-Link.com,2015-03-27 18:59:00,
2015-03-27 15:14:00,84.0,83.4,29.61,West,270,4.7,-999.0,98,-99.99,,,0.15,Acu-Link.com,2015-03-27 19:14:00,
2015-03-27 15:29:00,84.9,84.3,29.60,WSW,247,6.8,-999.0,98,-99.99,,,0.15,Acu-Link.com,2015-03-27 19:29:00,
2015-03-27 15:44:00,85.1,84.5,29.59,SW,225,5.3,-999.0,98,-99.99,,,0.15,Acu-Link.com,2015-03-27 19:44:00,